Wind_Speed
4 4 3 3 2 2 2 1 1 0 2 3 3 4 4 4 4 4 4 4 4 5 4 4 5 5 6 6 6 5 5 4 4 4 3 3 4 4 5 5 5 5 6
3 3 2 2 1 2 2 2 3 2 1 1 2 2 2 2 2 2 2 2 2 2 2 2 2 2 3 3 4 4 4 3 3 3 3 3 4 4 4 5 5 5 6
3 3 2 2 2 3 3 4 4 4 3 2 2 2 2 2 1 1 1 1 1 2 2 2 2 2 2 1 1 2 2 2 2 2 2 2 3 4 4 5 5 5 6
2 2 3 3 4 4 5 5 5 5 5 4 4 4 4 4 4 4 4 4 4 4 5 5 5 5 4 4 3 1 1 0 1 1 1 2 3 3 4 4 5 5 5
3 3 4 5 5 6 6 6 6 6 6 6 6 6 6 6 6 6 6 6 6 6 7 7 7 7 6 6 6 5 4 3 2 2 3 3 3 4 4 5 5 5 6
4 5 6 6 7 7 8 8 8 8 8 8 8 8 8 8 8 8 8 8 8 8 8 8 9 9 8 8 8 8 7 6 5 5 4 4 5 5 5 6 6 6 6
6 7 7 8 9 9 9 9 10 10 10 10 9 10 10 10 10 10 10 10 10 10 10 10 10 10 10 10 10 10 10 9 9 8 7 7 6 6 7 7 7 8 8
7 9 9 10 11 11 11 11 12 12 12 12 12 12 11 11 11 11 11 12 11 11 11 11 12 12 12 12 12 12 12 12 12 11 10 10 9 9 9 9 9 9 9
10 11 12 13 13 13 14 14 14 15 15 15 15 15 15 15 14 14 14 14 14 14 13 13 14 14 14 14 14 14 14 15 15 15 14 13 13 12 12 11 11 11 11
12 13 14 15 16 16 17 17 17 17 18 18 18 19 19 19 18 18 17 16 16 16 16 16 16 16 15 15 15 16 16 16 17 17 17 17 16 16 15 14 14 14 13
15 16 17 17 18 19 19 20 20 20 21 21 21 22 22 23 22 20 20 19 19 20 19 19 19 18 18 17 17 17 17 17 18 19 19 19 19 19 19 18 17 17 16
18 18 19 20 21 21 22 22 23 23 23 24 24 24 24 25 24 23 22 22 22 22 22 22 21 20 20 20 19 18 18 18 18 20 20 21 21 21 22 21 20 19 19
20 20 20 21 22 23 24 24 25 25 26 26 26 27 28 26 25 26 25 24 24 24 24 23 24 22 21 22 22 21 20 20 20 20 21 22 23 23 24 24 24 23 22
20 20 20 21 22 22 23 23 23 25 25 25 26 26 26 27 25 25 25 25 25 25 24 25 26 24 23 23 24 24 23 21 21 20 20 23 24 25 26 27 27 27 26
20 20 20 20 21 21 21 21 21 21 21 22 23 23 23 25 25 24 25 26 26 26 25 25 26 25 25 25 25 25 23 22 22 22 21 22 24 25 27 28 29 29 29
20 19 19 19 19 19 19 19 19 20 20 20 21 22 22 22 23 25 24 26 27 27 27 27 27 27 27 26 25 25 24 24 23 24 24 23 24 26 27 29 31 31 31
18 17 18 19 20 20 18 18 19 19 19 20 20 21 22 23 24 25 25 25 26 27 26 27 27 27 27 27 27 26 26 25 25 26 26 25 25 27 28 29 31 32 33
16 16 17 18 18 18 17 18 18 19 20 20 21 22 22 23 23 24 24 24 25 26 26 27 28 28 29 28 28 28 28 27 27 27 27 27 26 27 29 30 31 32 34
15 15 15 16 16 16 17 17 18 19 21 22 22 22 22 23 23 24 24 25 25 26 26 27 27 28 29 29 29 29 29 29 29 29 29 29 28 28 30 30 31 32 34
13 14 14 14 14 15 16 17 18 20 21 22 22 23 23 23 23 24 25 25 26 26 26 27 28 28 29 29 30 30 31 30 31 31 31 31 30 30 32 33 32 32 34
11 11 12 12 13 15 16 18 20 21 22 23 23 24 24 24 24 24 25 25 26 26 27 27 27 28 29 29 30 30 31 31 32 32 33 33 33 33 33 33 34 34 34
9 10 11 12 14 16 18 20 21 23 24 24 24 24 24 24 24 24 24 25 25 26 27 27 28 28 29 29 30 30 31 32 33 33 34 34 34 34 34 34 34 34 36
10 11 12 15 17 19 21 22 23 24 25 25 25 24 24 24 24 24 24 25 25 26 27 28 28 29 29 30 30 31 32 33 33 34 34 35 35 36 36 35 35 35 37
10 12 14 16 19 20 22 23 23 24 24 24 24 24 23 23 23 23 23 24 25 26 27 28 28 29 30 30 31 31 32 33 34 34 35 36 36 36 37 37 36 36 37
12 14 16 18 20 21 22 22 22 23 23 23 23 23 23 22 22 22 23 24 25 26 27 28 29 29 30 31 31 32 33 33 34 35 36 37 37 37 38 38 39 39 40
14 15 17 19 20 21 21 21 21 22 22 22 22 22 22 23 23 23 24 25 26 27 27 28 29 30 30 31 32 32 33 34 35 36 37 38 38 39 39 39 39 40 41
Wind_Direction
42 48 43 24 352 319 306 310 313 126 132 126 131 127 121 116 110 104 96 90 82 75 71 68 65 63 62 65 70 72 73 72 74 85 100 114 118 118 121 122 127 131 136
25 24 29 21 337 286 279 287 288 277 227 183 166 153 144 136 127 121 111 96 74 59 52 52 45 42 48 53 61 66 71 77 82 96 113 128 132 128 126 124 128 132 137
14 9 360 340 306 282 276 278 278 272 262 250 234 220 213 207 204 212 221 243 273 289 297 299 299 303 315 339 29 55 60 76 95 118 136 144 146 144 139 135 131 136 141
359 345 331 315 294 280 276 276 274 269 267 263 258 255 251 252 254 257 262 266 268 270 273 278 281 279 280 281 284 283 284 265 164 175 177 172 170 165 158 155 149 147 150
334 322 315 307 292 281 274 271 270 267 265 263 261 262 264 266 267 267 266 267 269 273 274 276 277 275 273 270 270 269 266 259 242 227 220 209 199 193 185 177 170 167 165
316 307 303 300 287 279 274 270 268 266 267 266 264 264 267 268 268 268 268 268 270 273 275 275 276 275 273 270 268 265 262 258 249 240 233 226 218 212 204 195 187 183 180
307 301 294 292 286 280 274 271 271 271 273 272 270 269 269 268 267 268 270 270 271 273 274 275 274 275 276 273 270 265 261 256 252 244 238 232 226 221 217 210 201 194 190
299 293 286 283 282 277 272 271 274 276 276 276 276 274 272 270 266 265 267 268 269 270 272 273 274 275 275 272 268 264 261 256 249 245 239 235 230 226 223 219 212 203 198
299 291 285 281 278 275 272 272 274 275 276 276 275 274 272 269 266 264 264 265 266 268 270 272 272 273 274 273 267 265 262 258 250 245 241 237 233 229 226 223 218 211 205
299 292 287 282 279 277 275 275 274 274 275 275 274 274 273 271 267 265 265 265 267 267 269 270 271 271 272 273 271 267 264 258 252 247 243 239 234 232 229 226 223 218 211
297 291 287 283 279 278 276 275 273 274 273 275 274 273 274 271 269 267 268 268 268 268 268 269 270 269 270 271 272 270 267 260 254 249 246 241 236 233 231 228 225 222 217
295 289 285 281 279 278 277 275 274 275 276 276 275 273 275 272 269 267 268 271 272 271 269 268 270 271 271 272 273 271 271 266 259 254 251 244 239 236 234 230 227 224 221
293 287 285 281 280 279 280 278 278 275 275 277 279 280 277 274 270 268 270 272 272 272 271 271 272 272 274 275 274 273 274 271 264 260 253 247 243 237 234 232 229 226 224
289 286 283 282 281 281 282 282 281 279 280 279 282 286 283 277 276 273 273 272 272 275 275 276 274 274 275 275 272 273 274 273 266 262 258 250 244 239 235 232 232 228 225
286 283 282 281 281 282 285 290 290 288 292 290 288 291 288 283 281 280 276 274 275 276 278 277 275 277 277 275 274 274 273 271 268 264 262 256 247 242 239 235 233 231 228
283 283 284 284 286 287 291 294 296 295 295 295 295 293 290 289 286 282 284 278 275 277 279 277 276 276 277 274 273 273 271 268 263 261 260 257 252 244 241 237 235 232 230
282 285 287 287 290 294 295 297 299 299 297 298 297 296 293 291 288 285 285 282 277 277 278 278 277 276 275 273 271 271 269 265 259 256 256 256 253 247 243 239 236 233 230
287 290 290 292 294 295 298 300 300 300 299 299 298 297 295 293 290 286 285 285 281 279 277 276 276 274 273 272 270 268 266 263 259 255 254 254 253 248 244 243 238 234 231
289 292 293 295 298 299 300 301 302 302 302 301 300 299 297 296 294 290 287 286 283 281 279 277 276 274 272 271 269 266 265 262 259 256 254 253 252 249 245 244 241 237 233
289 294 296 300 304 307 307 306 306 305 304 302 301 300 298 296 293 290 288 286 283 281 279 277 276 274 273 270 268 266 264 263 259 256 254 253 252 250 246 243 242 240 237
294 300 304 308 311 311 309 307 306 307 307 306 305 303 300 297 295 292 289 287 284 282 280 278 277 275 272 270 268 266 264 262 260 256 254 252 251 249 247 245 242 240 238
301 307 312 314 314 314 312 312 311 311 310 309 308 306 303 301 298 295 293 289 286 284 281 279 277 275 273 270 268 265 263 261 259 257 254 252 251 249 247 245 242 240 237
309 313 316 318 317 316 315 314 313 312 311 310 309 308 306 303 300 298 295 292 289 286 284 281 279 276 274 271 268 265 263 261 259 256 254 252 250 248 246 245 243 240 238
316 318 319 318 318 316 315 314 314 313 312 311 311 310 309 307 305 303 300 296 293 291 288 284 281 279 276 273 270 266 263 260 258 256 253 252 250 248 246 245 244 240 238
319 319 319 318 317 316 315 314 314 313 312 311 311 310 310 309 308 306 304 301 298 295 292 288 284 281 279 276 273 269 265 261 258 255 253 252 251 249 247 245 243 241 239
320 318 316 317 316 315 315 315 315 314 313 312 311 310 310 310 309 308 306 304 301 298 294 291 288 284 281 278 275 272 268 263 259 256 253 252 251 249 248 246 242 241 238
Height
5919 5919 5918 5918 5917 5916 5916 5916 5916 5915 5915 5914 5914 5913 5913 5913 5912 5912 5912 5911 5911 5911 5910 5910 5910 5909 5909 5908 5907 5907 5906 5905 5905 5904 5904 5904 5903 5903 5903 5902 5903 5903 5903
5919 5918 5918 5918 5917 5917 5916 5916 5915 5915 5914 5914 5914 5913 5913 5912 5912 5912 5912 5912 5911 5911 5910 5910 5910 5909 5909 5908 5908 5907 5906 5906 5905 5905 5904 5904 5904 5904 5903 5903 5903 5904 5904
5917 5917 5917 5917 5917 5917 5916 5915 5915 5914 5914 5913 5913 5913 5912 5912 5912 5912 5911 5911 5911 5911 5910 5910 5909 5909 5909 5908 5908 5907 5907 5906 5906 5905 5905 5904 5904 5904 5904 5904 5904 5904 5905
5916 5916 5916 5916 5916 5916 5915 5915 5914 5914 5913 5913 5912 5912 5911 5911 5911 5910 5910 5910 5910 5910 5909 5909 5909 5908 5908 5908 5907 5907 5907 5906 5906 5905 5905 5905 5904 5904 5905 5905 5905 5905 5906
5915 5915 5915 5914 5914 5914 5914 5914 5913 5913 5912 5911 5911 5911 5910 5910 5909 5909 5909 5909 5909 5908 5908 5908 5907 5907 5907 5907 5906 5906 5906 5906 5905 5905 5905 5904 5905 5905 5905 5905 5905 5906 5906
5914 5913 5913 5913 5913 5913 5912 5912 5912 5911 5911 5910 5909 5909 5908 5908 5908 5907 5907 5907 5907 5906 5906 5906 5906 5905 5905 5905 5905 5905 5905 5905 5905 5904 5904 5904 5904 5904 5905 5905 5905 5906 5906
5913 5912 5912 5911 5911 5911 5910 5910 5910 5909 5909 5908 5908 5907 5907 5906 5906 5905 5905 5905 5905 5904 5904 5904 5903 5903 5903 5902 5903 5903 5903 5903 5903 5903 5903 5903 5904 5904 5904 5905 5905 5906 5906
5911 5911 5910 5910 5909 5909 5908 5908 5907 5907 5906 5906 5905 5905 5904 5904 5903 5903 5902 5902 5902 5902 5902 5901 5901 5900 5900 5900 5900 5900 5900 5900 5901 5901 5902 5902 5903 5903 5904 5904 5905 5905 5906
5910 5909 5908 5907 5907 5906 5906 5905 5905 5904 5903 5903 5902 5902 5901 5900 5900 5899 5899 5898 5898 5898 5898 5898 5898 5897 5897 5896 5896 5897 5897 5897 5897 5898 5899 5900 5901 5902 5902 5903 5904 5904 5905
5907 5907 5906 5905 5904 5903 5903 5902 5901 5901 5900 5899 5898 5898 5897 5896 5895 5895 5894 5894 5894 5894 5894 5894 5894 5893 5893 5893 5893 5893 5893 5893 5894 5895 5896 5897 5898 5899 5900 5901 5902 5903 5904
5905 5904 5903 5902 5901 5900 5899 5899 5898 5897 5896 5895 5894 5893 5892 5891 5890 5890 5890 5890 5890 5889 5889 5889 5889 5889 5889 5888 5888 5888 5888 5889 5889 5890 5891 5893 5894 5896 5897 5898 5900 5901 5902
5902 5901 5900 5899 5898 5897 5896 5895 5894 5893 5892 5890 5889 5888 5888 5886 5885 5885 5885 5885 5884 5884 5883 5883 5883 5883 5883 5883 5883 5883 5883 5884 5884 5885 5886 5888 5889 5891 5893 5895 5896 5898 5899
5898 5897 5896 5895 5894 5893 5892 5891 5889 5888 5887 5885 5884 5883 5882 5881 5880 5879 5879 5879 5878 5878 5877 5877 5878 5878 5878 5878 5878 5878 5878 5878 5879 5880 5881 5883 5884 5886 5888 5890 5892 5894 5896
5894 5893 5892 5891 5890 5889 5888 5886 5885 5883 5882 5881 5879 5877 5876 5875 5874 5874 5873 5872 5872 5872 5871 5871 5871 5871 5872 5872 5872 5872 5872 5873 5873 5875 5876 5877 5879 5880 5882 5884 5886 5889 5891
5890 5889 5888 5887 5886 5885 5883 5882 5880 5879 5877 5876 5874 5872 5870 5869 5869 5868 5868 5867 5866 5865 5865 5865 5865 5866 5866 5866 5866 5866 5866 5867 5868 5869 5870 5871 5873 5874 5876 5878 5881 5883 5886
5886 5885 5884 5883 5882 5881 5879 5878 5876 5875 5873 5872 5870 5868 5866 5865 5864 5863 5862 5861 5860 5860 5859 5859 5859 5859 5860 5859 5860 5860 5860 5861 5862 5863 5864 5866 5867 5868 5870 5872 5874 5877 5879
5881 5881 5880 5879 5878 5877 5875 5874 5872 5870 5869 5867 5866 5864 5862 5860 5859 5857 5856 5855 5854 5854 5853 5853 5852 5852 5852 5852 5853 5853 5854 5854 5855 5856 5857 5859 5860 5862 5864 5866 5868 5870 5873
5877 5877 5876 5875 5874 5873 5871 5870 5868 5867 5865 5863 5861 5859 5857 5855 5853 5851 5850 5849 5848 5847 5847 5846 5846 5845 5845 5845 5845 5846 5847 5847 5848 5849 5850 5852 5853 5855 5857 5859 5861 5863 5866
5874 5873 5873 5872 5870 5869 5867 5866 5864 5862 5860 5858 5855 5853 5851 5849 5847 5845 5844 5843 5841 5841 5840 5839 5839 5838 5838 5838 5838 5839 5839 5840 5841 5842 5843 5845 5846 5848 5850 5852 5854 5856 5859
5871 5870 5869 5868 5867 5865 5863 5862 5860 5858 5855 5853 5850 5847 5845 5843 5841 5839 5838 5836 5835 5834 5833 5832 5831 5831 5830 5830 5831 5831 5831 5832 5833 5834 5836 5837 5838 5840 5842 5844 5847 5849 5852
5868 5867 5866 5865 5863 5861 5859 5857 5855 5853 5850 5847 5844 5841 5839 5837 5835 5833 5831 5830 5828 5827 5826 5825 5824 5823 5823 5823 5823 5823 5824 5824 5825 5826 5827 5829 5830 5832 5834 5836 5839 5841 5844
5865 5864 5863 5862 5860 5858 5855 5853 5850 5847 5844 5841 5838 5836 5833 5831 5828 5826 5825 5823 5821 5820 5819 5818 5817 5816 5815 5815 5815 5815 5816 5817 5817 5818 5819 5820 5822 5824 5826 5828 5831 5833 5836
5862 5861 5860 5858 5856 5853 5851 5848 5845 5842 5839 5836 5833 5830 5827 5825 5823 5820 5818 5816 5814 5813 5811 5810 5809 5808 5807 5807 5807 5807 5807 5807 5808 5810 5810 5811 5813 5815 5817 5820 5822 5825 5827
5859 5858 5856 5854 5852 5849 5846 5843 5840 5837 5834 5831 5827 5825 5822 5819 5817 5814 5812 5810 5808 5805 5804 5802 5801 5799 5799 5798 5798 5798 5798 5798 5799 5800 5802 5802 5804 5806 5808 5811 5813 5816 5819
5856 5854 5853 5850 5848 5845 5842 5839 5836 5833 5829 5826 5823 5820 5817 5814 5811 5809 5806 5803 5801 5798 5796 5794 5792 5791 5790 5789 5788 5788 5789 5789 5789 5791 5792 5793 5794 5796 5799 5801 5804 5807 5810
5853 5851 5849 5847 5845 5842 5839 5836 5832 5829 5825 5822 5819 5816 5812 5809 5806 5803 5800 5797 5794 5791 5789 5786 5784 5782 5781 5780 5779 5778 5779 5779 5780 5781 5782 5783 5784 5786 5788 5791 5794 5797 5800